| time (UTC) | temp F | wind direction | speed MPH | gust MPH | rain 1hr in | rain 24hr in | rain mn in | humidity % | barometer mb |
| 20260905171248 | 67 | 135 | 4.0 | 7.0 | 0.00 | 0.00 | 0.00 | 59 | 1015.0 |
| 20260905170744 | 64 | 101 | 7.0 | 7.0 | 0.00 | 0.00 | 0.00 | 64 | 1014.8 |
| 20260905170239 | 64 | 101 | 7.0 | 7.0 | 0.00 | 0.00 | 0.00 | 64 | 1014.8 |
| 20260905165738 | 64 | 101 | 7.0 | 7.0 | 0.00 | 0.00 | 0.00 | 64 | 1014.8 |
| 20260905165233 | 64 | 101 | 7.0 | 7.0 | 0.00 | 0.00 | 0.00 | 64 | 1014.8 |
| 20260905164728 | 64 | 64 | 0.0 | 7.0 | 0.00 | 0.00 | 0.00 | 63 | 1014.8 |
| 20260905164223 | 57 | 230 | 0.0 | 2.0 | 0.00 | 0.00 | 0.00 | 79 | 1014.8 |
| 20260905163719 | 57 | 230 | 0.0 | 2.0 | 0.00 | 0.00 | 0.00 | 79 | 1015.3 |
| 20260905163215 | 57 | 230 | 0.0 | 2.0 | 0.00 | 0.00 | 0.00 | 79 | 1015.3 |
| 20260905162711 | 57 | 230 | 0.0 | 2.0 | 0.00 | 0.00 | 0.00 | 79 | 1015.3 |
| 20260905162210 | 57 | 230 | 0.0 | 2.0 | 0.00 | 0.00 | 0.00 | 79 | 1015.3 |
| 20260905161705 | 57 | 230 | 0.0 | 2.0 | 0.00 | 0.00 | 0.00 | 79 | 1015.3 |
| 20260905161203 | 57 | 230 | 0.0 | 2.0 | 0.00 | 0.00 | 0.00 | 79 | 1015.3 |
| 20260905160702 | 57 | 230 | 0.0 | 2.0 | 0.00 | 0.00 | 0.00 | 79 | 1015.3 |
| 20260905160202 | 57 | 230 | 0.0 | 2.0 | 0.00 | 0.00 | 0.00 | 79 | 1015.5 |
| 20260905155656 | 57 | 230 | 0.0 | 2.0 | 0.00 | 0.00 | 0.00 | 79 | 1015.5 |
| 20260905155155 | 55 | 23 | 2.0 | 3.0 | 0.00 | 0.00 | 0.00 | 86 | 1015.4 |
| 20260905154650 | 55 | 23 | 2.0 | 3.0 | 0.00 | 0.00 | 0.00 | 86 | 1015.3 |
| 20260905154145 | 55 | 23 | 2.0 | 3.0 | 0.00 | 0.00 | 0.00 | 86 | 1015.3 |
| 20260905153641 | 55 | 23 | 2.0 | 3.0 | 0.00 | 0.00 | 0.00 | 86 | 1015.5 |
| 20260905153136 | 55 | 23 | 2.0 | 3.0 | 0.00 | 0.00 | 0.00 | 86 | 1015.3 |
| 20260905152631 | 55 | 23 | 2.0 | 3.0 | 0.00 | 0.00 | 0.00 | 86 | 1015.1 |
| 20260905152126 | 55 | 23 | 2.0 | 3.0 | 0.00 | 0.00 | 0.00 | 86 | 1015.5 |
| 20260905151621 | 55 | 23 | 2.0 | 3.0 | 0.00 | 0.00 | 0.00 | 86 | 1015.3 |
| 20260905151116 | 55 | 23 | 2.0 | 3.0 | 0.00 | 0.00 | 0.00 | 86 | 1015.3 |
| 20260905150612 | 54 | 75 | 2.0 | 3.0 | 0.00 | 0.00 | 0.00 | 87 | 1015.1 |
| 20260905150109 | 53 | 73 | 1.0 | 2.0 | 0.00 | 0.00 | 0.00 | 89 | 1015.4 |
| 20260905145603 | 52 | 306 | 0.0 | 1.0 | 0.00 | 0.00 | 0.00 | 90 | 1015.2 |
| 20260905145102 | 52 | 75 | 0.0 | 1.0 | 0.00 | 0.00 | 0.00 | 92 | 1015.3 |
| 20260905144557 | 50 | 339 | 0.0 | 0.0 | 0.00 | 0.00 | 0.00 | 94 | 1015.4 |
| 20260905144056 | 50 | 339 | 0.0 | 0.0 | 0.00 | 0.00 | 0.00 | 94 | 1015.5 |
| 20260905143555 | 50 | 339 | 0.0 | 0.0 | 0.00 | 0.00 | 0.00 | 94 | 1015.5 |
| 20260905143051 | 49 | 47 | 2.0 | 3.0 | 0.00 | 0.00 | 0.00 | 94 | 1015.4 |
| 20260905142549 | 49 | 47 | 2.0 | 3.0 | 0.00 | 0.00 | 0.00 | 94 | 1015.3 |
| 20260905142044 | 49 | 330 | 1.0 | 2.0 | 0.00 | 0.00 | 0.00 | 94 | 1015.4 |
| 20260905141539 | 48 | 45 | 1.0 | 1.0 | 0.00 | 0.00 | 0.00 | 94 | 1015.3 |
| 20260905141035 | 48 | 174 | 1.0 | 4.0 | 0.00 | 0.00 | 0.00 | 94 | 1015.4 |
| 20260905140530 | 48 | 85 | 1.0 | 3.0 | 0.00 | 0.00 | 0.00 | 94 | 1015.3 |
| 20260905140029 | 48 | 319 | 2.0 | 3.0 | 0.00 | 0.00 | 0.00 | 95 | 1015.3 |
| 20260905135525 | 48 | 131 | 0.0 | 3.0 | 0.00 | 0.00 | 0.00 | 94 | 1015.5 |
| 20260905135019 | 48 | 98 | 1.0 | 2.0 | 0.00 | 0.00 | 0.00 | 95 | 1015.2 |
| 20260905134514 | 48 | 60 | 0.0 | 2.0 | 0.00 | 0.00 | 0.00 | 95 | 1015.2 |
| 20260905134013 | 48 | 299 | 0.0 | 3.0 | 0.00 | 0.00 | 0.00 | 95 | 1015.1 |
| 20260905133509 | 48 | 199 | 1.0 | 2.0 | 0.00 | 0.00 | 0.00 | 95 | 1015.2 |
| 20260905133008 | 48 | 56 | 3.0 | 4.0 | 0.00 | 0.00 | 0.00 | 95 | 1015.1 |
| 20260905132502 | 48 | 175 | 0.0 | 2.0 | 0.00 | 0.00 | 0.00 | 95 | 1015.0 |
| 20260905131957 | 48 | 267 | 0.0 | 3.0 | 0.00 | 0.00 | 0.00 | 95 | 1014.9 |
| 20260905131453 | 48 | 55 | 0.0 | 3.0 | 0.00 | 0.00 | 0.00 | 95 | 1015.1 |
| 20260905130948 | 48 | 129 | 2.0 | 3.0 | 0.00 | 0.00 | 0.00 | 95 | 1014.9 |
| 20260905130447 | 47 | 209 | 0.0 | 2.0 | 0.00 | 0.00 | 0.00 | 95 | 1014.9 |
| 20260905125941 | 47 | 215 | 0.0 | 2.0 | 0.00 | 0.00 | 0.00 | 95 | 1014.9 |
| 20260905125436 | 47 | 299 | 3.0 | 4.0 | 0.00 | 0.00 | 0.00 | 95 | 1014.9 |
| 20260905124932 | 47 | 142 | 0.0 | 2.0 | 0.00 | 0.00 | 0.00 | 95 | 1015.1 |
| 20260905124429 | 48 | 193 | 0.0 | 2.0 | 0.00 | 0.00 | 0.00 | 95 | 1015.1 |
| 20260905123929 | 47 | 13 | 0.0 | 2.0 | 0.00 | 0.00 | 0.00 | 94 | 1015.1 |
| 20260905123425 | 47 | 241 | 0.0 | 3.0 | 0.00 | 0.00 | 0.00 | 94 | 1015.0 |
| 20260905122919 | 47 | 66 | 0.0 | 3.0 | 0.00 | 0.00 | 0.00 | 94 | 1015.1 |
| 20260905122419 | 48 | 32 | 3.0 | 3.0 | 0.00 | 0.00 | 0.00 | 94 | 1015.1 |
| 20260905121915 | 48 | 219 | 1.0 | 2.0 | 0.00 | 0.00 | 0.00 | 94 | 1015.1 |
| 20260905121410 | 48 | 13 | 2.0 | 4.0 | 0.00 | 0.00 | 0.00 | 93 | 1015.2 |
| 20260905120909 | 48 | 86 | 4.0 | 4.0 | 0.00 | 0.00 | 0.00 | 93 | 1015.2 |
| 20260905120404 | 48 | 328 | 2.0 | 3.0 | 0.00 | 0.00 | 0.00 | 94 | 1015.1 |
| 20260905115858 | 48 | 46 | 1.0 | 2.0 | 0.00 | 0.00 | 0.00 | 94 | 1015.1 |
| 20260905115358 | 48 | 157 | 0.0 | 3.0 | 0.00 | 0.00 | 0.00 | 94 | 1015.2 |
| 20260905114853 | 48 | 150 | 1.0 | 4.0 | 0.00 | 0.00 | 0.00 | 94 | 1015.2 |
| 20260905114352 | 48 | 306 | 2.0 | 4.0 | 0.00 | 0.00 | 0.00 | 94 | 1015.1 |
| 20260905113846 | 48 | 173 | 1.0 | 4.0 | 0.00 | 0.00 | 0.00 | 94 | 1015.0 |
| 20260905113341 | 48 | 146 | 2.0 | 4.0 | 0.00 | 0.00 | 0.00 | 94 | 1015.0 |
| 20260905112837 | 48 | 23 | 2.0 | 3.0 | 0.00 | 0.00 | 0.00 | 94 | 1015.1 |
| 20260905112332 | 48 | 99 | 0.0 | 2.0 | 0.00 | 0.00 | 0.00 | 94 | 1015.3 |
| 20260905111827 | 48 | 227 | 0.0 | 3.0 | 0.00 | 0.00 | 0.00 | 94 | 1015.5 |
| 20260905111326 | 48 | 148 | 1.0 | 3.0 | 0.00 | 0.00 | 0.00 | 94 | 1015.5 |
| 20260905110820 | 48 | 233 | 1.0 | 3.0 | 0.00 | 0.00 | 0.00 | 94 | 1015.3 |
| 20260905110314 | 48 | 113 | 0.0 | 4.0 | 0.00 | 0.00 | 0.00 | 94 | 1015.3 |
| 20260905105810 | 48 | 301 | 1.0 | 3.0 | 0.00 | 0.00 | 0.00 | 94 | 1015.5 |
| 20260905105309 | 48 | 309 | 1.0 | 3.0 | 0.00 | 0.00 | 0.00 | 94 | 1015.6 |
| 20260905104803 | 48 | 130 | 0.0 | 2.0 | 0.00 | 0.00 | 0.00 | 94 | 1015.6 |
| 20260905104300 | 48 | 299 | 1.0 | 2.0 | 0.00 | 0.00 | 0.00 | 94 | 1015.6 |
| 20260905103759 | 48 | 22 | 2.0 | 4.0 | 0.00 | 0.00 | 0.00 | 94 | 1015.7 |
| 20260905103255 | 48 | 59 | 0.0 | 2.0 | 0.00 | 0.00 | 0.00 | 94 | 1015.4 |
| 20260905102751 | 48 | 259 | 2.0 | 3.0 | 0.00 | 0.00 | 0.00 | 94 | 1015.6 |
| 20260905102248 | 48 | 298 | 2.0 | 2.0 | 0.00 | 0.00 | 0.00 | 94 | 1015.6 |
| 20260905101747 | 48 | 211 | 1.0 | 2.0 | 0.00 | 0.00 | 0.00 | 93 | 1015.5 |
| 20260905101245 | 48 | 32 | 0.0 | 3.0 | 0.00 | 0.00 | 0.00 | 93 | 1015.4 |
| 20260905100740 | 48 | 70 | 2.0 | 3.0 | 0.00 | 0.00 | 0.00 | 93 | 1015.4 |
| 20260905100236 | 48 | 316 | 1.0 | 2.0 | 0.00 | 0.00 | 0.00 | 93 | 1015.4 |
| 20260905095736 | 48 | 240 | 0.0 | 2.0 | 0.00 | 0.00 | 0.00 | 93 | 1015.4 |
| 20260905095235 | 49 | 37 | 0.0 | 2.0 | 0.00 | 0.00 | 0.00 | 93 | 1015.2 |
| 20260905094730 | 49 | 34 | 0.0 | 2.0 | 0.00 | 0.00 | 0.00 | 93 | 1015.4 |
| 20260905094225 | 49 | 44 | 0.0 | 2.0 | 0.00 | 0.00 | 0.00 | 93 | 1015.5 |
| 20260905093725 | 49 | 260 | 0.0 | 2.0 | 0.00 | 0.00 | 0.00 | 93 | 1015.4 |
| 20260905093221 | 49 | 236 | 0.0 | 2.0 | 0.00 | 0.00 | 0.00 | 93 | 1015.3 |
| 20260905092716 | 49 | 277 | 0.0 | 1.0 | 0.00 | 0.00 | 0.00 | 92 | 1015.4 |
| 20260905092211 | 49 | 269 | 0.0 | 3.0 | 0.00 | 0.00 | 0.00 | 92 | 1015.3 |
| 20260905091710 | 49 | 9 | 0.0 | 2.0 | 0.00 | 0.00 | 0.00 | 92 | 1015.4 |
| 20260905091205 | 49 | 290 | 0.0 | 2.0 | 0.00 | 0.00 | 0.00 | 92 | 1015.4 |
| 20260905090659 | 49 | 71 | 2.0 | 3.0 | 0.00 | 0.00 | 0.00 | 92 | 1015.5 |
| 20260905090155 | 49 | 62 | 2.0 | 3.0 | 0.00 | 0.00 | 0.00 | 92 | 1015.5 |
| 20260905085654 | 49 | 49 | 0.0 | 1.0 | 0.00 | 0.00 | 0.00 | 92 | 1015.5 |
| 20260905085149 | 49 | 317 | 2.0 | 2.0 | 0.00 | 0.00 | 0.00 | 92 | 1015.4 |
| 20260905084649 | 49 | 278 | 0.0 | 2.0 | 0.00 | 0.00 | 0.00 | 92 | 1015.6 |
| 20260905084143 | 49 | 135 | 0.0 | 3.0 | 0.00 | 0.00 | 0.00 | 92 | 1015.5 |
| 20260905083638 | 49 | 293 | 1.0 | 2.0 | 0.00 | 0.00 | 0.00 | 92 | 1015.5 |
| 20260905083134 | 49 | 289 | 2.0 | 3.0 | 0.00 | 0.00 | 0.00 | 92 | 1015.5 |
| 20260905082630 | 50 | 205 | 0.0 | 1.0 | 0.00 | 0.00 | 0.00 | 92 | 1015.6 |
| 20260905082126 | 50 | 46 | 2.0 | 3.0 | 0.00 | 0.00 | 0.00 | 91 | 1015.7 |
| 20260905081625 | 50 | 89 | 1.0 | 2.0 | 0.00 | 0.00 | 0.00 | 91 | 1015.6 |
| 20260905081120 | 50 | 22 | 0.0 | 2.0 | 0.00 | 0.00 | 0.00 | 91 | 1015.5 |
| 20260905080615 | 50 | 50 | 0.0 | 1.0 | 0.00 | 0.00 | 0.00 | 91 | 1015.4 |
| 20260905080109 | 50 | 237 | 0.0 | 1.0 | 0.00 | 0.00 | 0.00 | 91 | 1015.5 |
| 20260905075608 | 50 | 129 | 0.0 | 2.0 | 0.00 | 0.00 | 0.00 | 91 | 1015.5 |
| 20260905075108 | 50 | 117 | 0.0 | 1.0 | 0.00 | 0.00 | 0.00 | 91 | 1015.5 |
| 20260905074607 | 50 | 161 | 0.0 | 1.0 | 0.00 | 0.00 | 0.00 | 90 | 1015.3 |
| 20260905074103 | 50 | 10 | 0.0 | 2.0 | 0.00 | 0.00 | 0.00 | 90 | 1015.5 |
| 20260905073559 | 51 | 44 | 0.0 | 2.0 | 0.00 | 0.00 | 0.00 | 90 | 1015.1 |
| 20260905073054 | 51 | 344 | 2.0 | 2.0 | 0.00 | 0.00 | 0.00 | 90 | 1015.3 |
| 20260905072553 | 51 | 240 | 1.0 | 2.0 | 0.00 | 0.00 | 0.00 | 90 | 1015.2 |
| 20260905072049 | 51 | 152 | 1.0 | 2.0 | 0.00 | 0.00 | 0.00 | 90 | 1015.3 |
| 20260905071546 | 50 | 265 | 1.0 | 2.0 | 0.00 | 0.00 | 0.00 | 90 | 1015.3 |
| 20260905071045 | 51 | 195 | 0.0 | 2.0 | 0.00 | 0.00 | 0.00 | 90 | 1015.3 |
| 20260905070536 | 51 | 66 | 1.0 | 2.0 | 0.00 | 0.00 | 0.00 | 90 | 1015.2 |
| 20260905070031 | 51 | 290 | 2.0 | 3.0 | 0.00 | 0.00 | 0.00 | 90 | 1015.3 |
| 20260905065528 | 51 | 84 | 2.0 | 3.0 | 0.00 | 0.00 | 0.00 | 90 | 1015.1 |
| 20260905065025 | 51 | 288 | 2.0 | 3.0 | 0.00 | 0.00 | 0.00 | 90 | 1015.3 |
| 20260905064525 | 51 | 301 | 3.0 | 3.0 | 0.00 | 0.00 | 0.00 | 89 | 1015.1 |
| 20260905064020 | 51 | 111 | 2.0 | 3.0 | 0.00 | 0.00 | 0.00 | 88 | 1015.2 |
| 20260905063519 | 51 | 334 | 1.0 | 2.0 | 0.00 | 0.00 | 0.00 | 88 | 1015.0 |
| 20260905063016 | 51 | 301 | 0.0 | 1.0 | 0.00 | 0.00 | 0.00 | 87 | 1015.1 |
| 20260905062515 | 52 | 82 | 2.0 | 3.0 | 0.00 | 0.00 | 0.00 | 87 | 1015.1 |
| 20260905062010 | 52 | 356 | 1.0 | 3.0 | 0.00 | 0.00 | 0.00 | 88 | 1015.1 |
| 20260905061506 | 52 | 322 | 0.0 | 2.0 | 0.00 | 0.00 | 0.00 | 88 | 1015.0 |
| 20260905061004 | 52 | 245 | 2.0 | 2.0 | 0.00 | 0.00 | 0.00 | 87 | 1015.1 |
| 20260905060500 | 52 | 49 | 3.0 | 4.0 | 0.00 | 0.00 | 0.00 | 86 | 1015.4 |
| 20260905055955 | 52 | 36 | 1.0 | 2.0 | 0.00 | 0.00 | 0.00 | 86 | 1015.0 |
| 20260905055454 | 52 | 343 | 0.0 | 2.0 | 0.00 | 0.00 | 0.00 | 86 | 1014.9 |
| 20260905054949 | 53 | 37 | 0.0 | 0.0 | 0.00 | 0.00 | 0.00 | 85 | 1015.1 |
| 20260905054444 | 53 | 92 | 1.0 | 2.0 | 0.00 | 0.00 | 0.00 | 85 | 1015.2 |
| 20260905053939 | 53 | 115 | 2.0 | 3.0 | 0.00 | 0.00 | 0.00 | 85 | 1015.1 |
| 20260905053434 | 53 | 258 | 2.0 | 3.0 | 0.00 | 0.00 | 0.00 | 85 | 1014.9 |
| 20260905052930 | 53 | 67 | 3.0 | 3.0 | 0.00 | 0.00 | 0.00 | 84 | 1014.9 |
| 20260905052429 | 54 | 10 | 2.0 | 4.0 | 0.00 | 0.00 | 0.00 | 83 | 1015.0 |
| 20260905051928 | 54 | 268 | 2.0 | 5.0 | 0.00 | 0.00 | 0.00 | 83 | 1014.9 |
| 20260905051424 | 53 | 271 | 4.0 | 5.0 | 0.00 | 0.00 | 0.00 | 84 | 1014.9 |
| 20260905050922 | 54 | 132 | 1.0 | 4.0 | 0.00 | 0.00 | 0.00 | 84 | 1015.0 |
| 20260905050417 | 54 | 310 | 1.0 | 2.0 | 0.00 | 0.00 | 0.00 | 84 | 1015.0 |
| 20260905045912 | 54 | 166 | 0.0 | 2.0 | 0.00 | 0.00 | 0.00 | 83 | 1015.0 |
| 20260905045402 | 55 | 66 | 3.0 | 6.0 | 0.00 | 0.00 | 0.00 | 81 | 1014.9 |
| 20260905044857 | 55 | 40 | 3.0 | 5.0 | 0.00 | 0.00 | 0.00 | 79 | 1014.9 |
| 20260905044352 | 55 | 296 | 3.0 | 5.0 | 0.00 | 0.00 | 0.00 | 81 | 1014.7 |
| 20260905043851 | 55 | 313 | 4.0 | 5.0 | 0.00 | 0.00 | 0.00 | 83 | 1014.7 |
| 20260905043346 | 55 | 51 | 2.0 | 4.0 | 0.00 | 0.00 | 0.00 | 81 | 1014.8 |
| 20260905042841 | 55 | 312 | 0.0 | 2.0 | 0.00 | 0.00 | 0.00 | 80 | 1014.8 |
| 20260905042340 | 56 | 147 | 0.0 | 2.0 | 0.00 | 0.00 | 0.00 | 79 | 1014.5 |
| 20260905041835 | 56 | 345 | 0.0 | 2.0 | 0.00 | 0.00 | 0.00 | 78 | 1014.9 |
| 20260905041331 | 57 | 99 | 2.0 | 3.0 | 0.00 | 0.00 | 0.00 | 76 | 1014.5 |
| 20260905040826 | 57 | 103 | 2.0 | 3.0 | 0.00 | 0.00 | 0.00 | 75 | 1014.4 |
| 20260905040324 | 57 | 324 | 2.0 | 3.0 | 0.00 | 0.00 | 0.00 | 75 | 1014.7 |
| 20260905035819 | 58 | 254 | 1.0 | 3.0 | 0.00 | 0.00 | 0.00 | 73 | 1014.3 |
| 20260905035315 | 58 | 284 | 2.0 | 3.0 | 0.00 | 0.00 | 0.00 | 74 | 1014.3 |
| 20260905034811 | 58 | 282 | 2.0 | 4.0 | 0.00 | 0.00 | 0.00 | 73 | 1014.3 |
| 20260905034306 | 58 | 311 | 2.0 | 3.0 | 0.00 | 0.00 | 0.00 | 74 | 1014.1 |
| 20260905033805 | 58 | 312 | 1.0 | 3.0 | 0.00 | 0.00 | 0.00 | 72 | 1014.0 |
| 20260905033300 | 59 | 293 | 1.0 | 3.0 | 0.00 | 0.00 | 0.00 | 72 | 1014.0 |
| 20260905032800 | 59 | 265 | 1.0 | 5.0 | 0.00 | 0.00 | 0.00 | 71 | 1013.8 |
| 20260905032255 | 59 | 33 | 1.0 | 2.0 | 0.00 | 0.00 | 0.00 | 71 | 1014.0 |
| 20260905031750 | 59 | 300 | 1.0 | 3.0 | 0.00 | 0.00 | 0.00 | 70 | 1013.7 |
| 20260905031246 | 60 | 266 | 2.0 | 3.0 | 0.00 | 0.00 | 0.00 | 69 | 1013.9 |
| 20260905030741 | 60 | 353 | 3.0 | 4.0 | 0.00 | 0.00 | 0.00 | 65 | 1013.8 |
| 20260905030236 | 60 | 266 | 2.0 | 5.0 | 0.00 | 0.00 | 0.00 | 68 | 1013.7 |
| 20260905025730 | 61 | 260 | 4.0 | 6.0 | 0.00 | 0.00 | 0.00 | 68 | 1013.7 |
| 20260905025226 | 62 | 326 | 1.0 | 3.0 | 0.00 | 0.00 | 0.00 | 61 | 1013.6 |
| 20260905024721 | 63 | 320 | 1.0 | 4.0 | 0.00 | 0.00 | 0.00 | 61 | 1013.6 |
| 20260905024218 | 62 | 11 | 1.0 | 3.0 | 0.00 | 0.00 | 0.00 | 62 | 1013.6 |
| 20260905023712 | 62 | 284 | 3.0 | 4.0 | 0.00 | 0.00 | 0.00 | 63 | 1013.7 |
| 20260905023213 | 62 | 324 | 2.0 | 5.0 | 0.00 | 0.00 | 0.00 | 64 | 1013.5 |
| 20260905022711 | 63 | 265 | 4.0 | 7.0 | 0.00 | 0.00 | 0.00 | 62 | 1013.5 |
| 20260905022207 | 63 | 290 | 6.0 | 9.0 | 0.00 | 0.00 | 0.00 | 64 | 1013.6 |
| 20260905021707 | 63 | 266 | 5.0 | 8.0 | 0.00 | 0.00 | 0.00 | 62 | 1013.4 |
| 20260905021202 | 63 | 254 | 4.0 | 8.0 | 0.00 | 0.00 | 0.00 | 62 | 1013.4 |
| 20260905020657 | 63 | 273 | 9.0 | 10.0 | 0.00 | 0.00 | 0.00 | 62 | 1013.4 |
| 20260905020152 | 63 | 264 | 6.0 | 9.0 | 0.00 | 0.00 | 0.00 | 59 | 1013.5 |
| 20260905015651 | 63 | 263 | 2.0 | 6.0 | 0.00 | 0.00 | 0.00 | 60 | 1013.4 |
| 20260905015145 | 63 | 266 | 4.0 | 10.0 | 0.00 | 0.00 | 0.00 | 63 | 1013.6 |
| 20260905014639 | 64 | 272 | 4.0 | 8.0 | 0.00 | 0.00 | 0.00 | 62 | 1013.4 |
| 20260905014134 | 64 | 291 | 4.0 | 7.0 | 0.00 | 0.00 | 0.00 | 60 | 1013.6 |
| 20260905013631 | 64 | 79 | 2.0 | 9.0 | 0.00 | 0.00 | 0.00 | 59 | 1013.5 |
| 20260905013126 | 64 | 273 | 3.0 | 9.0 | 0.00 | 0.00 | 0.00 | 59 | 1013.5 |
| 20260905012621 | 65 | 256 | 4.0 | 7.0 | 0.00 | 0.00 | 0.00 | 60 | 1013.4 |
| 20260905012117 | 66 | 267 | 3.0 | 5.0 | 0.00 | 0.00 | 0.00 | 57 | 1013.3 |
| 20260905011613 | 66 | 281 | 3.0 | 7.0 | 0.00 | 0.00 | 0.00 | 55 | 1013.3 |
| 20260905011108 | 67 | 25 | 2.0 | 5.0 | 0.00 | 0.00 | 0.00 | 51 | 1013.3 |
| 20260905010603 | 67 | 170 | 5.0 | 7.0 | 0.00 | 0.00 | 0.00 | 51 | 1013.3 |
| 20260905010059 | 67 | 94 | 3.0 | 7.0 | 0.00 | 0.00 | 0.00 | 50 | 1013.4 |
| 20260905005554 | 68 | 116 | 0.0 | 5.0 | 0.00 | 0.00 | 0.00 | 49 | 1013.3 |
| 20260905005049 | 68 | 136 | 2.0 | 5.0 | 0.00 | 0.00 | 0.00 | 48 | 1013.3 |
| 20260905004544 | 68 | 157 | 1.0 | 11.0 | 0.00 | 0.00 | 0.00 | 47 | 1013.3 |
| 20260905004039 | 68 | 204 | 5.0 | 7.0 | 0.00 | 0.00 | 0.00 | 48 | 1013.3 |
| 20260905003535 | 69 | 55 | 3.0 | 5.0 | 0.00 | 0.00 | 0.00 | 48 | 1013.1 |
| 20260905003031 | 68 | 125 | 2.0 | 12.0 | 0.00 | 0.00 | 0.00 | 48 | 1013.3 |
| 20260905002526 | 69 | 96 | 4.0 | 8.0 | 0.00 | 0.00 | 0.00 | 47 | 1013.1 |
| 20260905002026 | 69 | 129 | 2.0 | 3.0 | 0.00 | 0.00 | 0.00 | 46 | 1013.0 |
| 20260905001520 | 68 | 177 | 3.0 | 6.0 | 0.00 | 0.00 | 0.00 | 47 | 1013.1 |
| 20260905001015 | 69 | 209 | 1.0 | 4.0 | 0.00 | 0.00 | 0.00 | 46 | 1013.1 |
| 20260905000510 | 69 | 64 | 3.0 | 7.0 | 0.00 | 0.00 | 0.00 | 47 | 1013.0 |
| 20260905000006 | 68 | 158 | 5.0 | 8.0 | 0.00 | 0.00 | 0.00 | 47 | 1013.1 |
| 20260904235501 | 69 | 175 | 6.0 | 8.0 | 0.00 | 0.00 | 0.00 | 45 | 1013.3 |
| 20260904235001 | 70 | 173 | 6.0 | 11.0 | 0.00 | 0.00 | 0.00 | 43 | 1013.1 |
| 20260904234501 | 72 | 176 | 4.0 | 7.0 | 0.00 | 0.00 | 0.00 | 43 | 1013.0 |
| 20260904233957 | 72 | 206 | 2.0 | 5.0 | 0.00 | 0.00 | 0.00 | 41 | 1012.9 |
| 20260904233452 | 71 | 190 | 0.0 | 3.0 | 0.00 | 0.00 | 0.00 | 42 | 1013.0 |
| 20260904232948 | 70 | 113 | 5.0 | 8.0 | 0.00 | 0.00 | 0.00 | 44 | 1013.0 |
| 20260904232444 | 69 | 156 | 1.0 | 5.0 | 0.00 | 0.00 | 0.00 | 46 | 1013.2 |
| 20260904231941 | 68 | 118 | 3.0 | 9.0 | 0.00 | 0.00 | 0.00 | 46 | 1013.2 |
| 20260904231436 | 68 | 189 | 4.0 | 9.0 | 0.00 | 0.00 | 0.00 | 45 | 1013.3 |
| 20260904230931 | 69 | 207 | 3.0 | 10.0 | 0.00 | 0.00 | 0.00 | 45 | 1013.2 |
| 20260904230429 | 71 | 186 | 9.0 | 12.0 | 0.00 | 0.00 | 0.00 | 44 | 1013.0 |
| 20260904225925 | 71 | 260 | 7.0 | 18.0 | 0.00 | 0.00 | 0.00 | 44 | 1012.9 |
| 20260904225422 | 72 | 117 | 9.0 | 9.0 | 0.00 | 0.00 | 0.00 | 43 | 1012.9 |
| 20260904224917 | 70 | 185 | 4.0 | 10.0 | 0.00 | 0.00 | 0.00 | 45 | 1013.1 |
| 20260904224413 | 72 | 117 | 4.0 | 8.0 | 0.00 | 0.00 | 0.00 | 43 | 1013.2 |
| 20260904223912 | 71 | 210 | 2.0 | 9.0 | 0.00 | 0.00 | 0.00 | 43 | 1013.0 |
| 20260904223412 | 70 | 192 | 4.0 | 8.0 | 0.00 | 0.00 | 0.00 | 46 | 1013.1 |
| 20260904222908 | 73 | 141 | 5.0 | 10.0 | 0.00 | 0.00 | 0.00 | 40 | 1013.1 |
| 20260904222403 | 74 | 200 | 5.0 | 8.0 | 0.00 | 0.00 | 0.00 | 40 | 1013.0 |
| 20260904221903 | 72 | 191 | 3.0 | 8.0 | 0.00 | 0.00 | 0.00 | 40 | 1013.2 |
| 20260904221357 | 69 | 205 | 2.0 | 12.0 | 0.00 | 0.00 | 0.00 | 42 | 1013.1 |
| 20260904220853 | 70 | 187 | 4.0 | 9.0 | 0.00 | 0.00 | 0.00 | 42 | 1013.3 |
| 20260904220352 | 73 | 159 | 7.0 | 11.0 | 0.00 | 0.00 | 0.00 | 42 | 1013.2 |
| 20260904215848 | 74 | 114 | 5.0 | 11.0 | 0.00 | 0.00 | 0.00 | 40 | 1013.2 |
| 20260904215342 | 72 | 223 | 11.0 | 11.0 | 0.00 | 0.00 | 0.00 | 39 | 1013.3 |
| 20260904214838 | 73 | 212 | 4.0 | 9.0 | 0.00 | 0.00 | 0.00 | 39 | 1013.0 |
| 20260904214334 | 71 | 261 | 2.0 | 15.0 | 0.00 | 0.00 | 0.00 | 40 | 1013.0 |
| 20260904213832 | 74 | 173 | 5.0 | 9.0 | 0.00 | 0.00 | 0.00 | 36 | 1012.9 |
| 20260904213327 | 72 | 105 | 6.0 | 15.0 | 0.00 | 0.00 | 0.00 | 38 | 1012.9 |
| 20260904212824 | 72 | 122 | 3.0 | 11.0 | 0.00 | 0.00 | 0.00 | 40 | 1012.8 |
| 20260904212323 | 72 | 166 | 4.0 | 14.0 | 0.00 | 0.00 | 0.00 | 36 | 1012.9 |
| 20260904211819 | 72 | 103 | 9.0 | 10.0 | 0.00 | 0.00 | 0.00 | 37 | 1012.9 |
| 20260904211313 | 72 | 193 | 2.0 | 9.0 | 0.00 | 0.00 | 0.00 | 37 | 1013.1 |
| 20260904210803 | 71 | 91 | 6.0 | 8.0 | 0.00 | 0.00 | 0.00 | 37 | 1012.9 |
| 20260904210302 | 69 | 289 | 3.0 | 11.0 | 0.00 | 0.00 | 0.00 | 38 | 1013.0 |
| 20260904205759 | 70 | 190 | 5.0 | 8.0 | 0.00 | 0.00 | 0.00 | 41 | 1013.0 |
| 20260904205254 | 71 | 132 | 5.0 | 12.0 | 0.00 | 0.00 | 0.00 | 42 | 1012.9 |
| 20260904204751 | 72 | 154 | 4.0 | 8.0 | 0.00 | 0.00 | 0.00 | 42 | 1012.9 |
| 20260904204247 | 71 | 161 | 5.0 | 10.0 | 0.00 | 0.00 | 0.00 | 41 | 1013.2 |
| 20260904203742 | 70 | 138 | 0.0 | 8.0 | 0.00 | 0.00 | 0.00 | 42 | 1013.1 |
| 20260904203238 | 70 | 166 | 5.0 | 10.0 | 0.00 | 0.00 | 0.00 | 42 | 1013.2 |
| 20260904202734 | 70 | 147 | 3.0 | 11.0 | 0.00 | 0.00 | 0.00 | 38 | 1013.0 |
| 20260904202230 | 71 | 184 | 3.0 | 10.0 | 0.00 | 0.00 | 0.00 | 39 | 1013.2 |
| 20260904201726 | 72 | 200 | 5.0 | 11.0 | 0.00 | 0.00 | 0.00 | 41 | 1013.2 |
| 20260904201225 | 70 | 156 | 3.0 | 6.0 | 0.00 | 0.00 | 0.00 | 43 | 1013.1 |
| 20260904200720 | 70 | 147 | 3.0 | 4.0 | 0.00 | 0.00 | 0.00 | 45 | 1013.1 |
| 20260904200215 | 68 | 98 | 3.0 | 9.0 | 0.00 | 0.00 | 0.00 | 46 | 1013.1 |
| 20260904195714 | 70 | 112 | 8.0 | 13.0 | 0.00 | 0.00 | 0.00 | 46 | 1013.0 |
| 20260904195207 | 68 | 83 | 3.0 | 7.0 | 0.00 | 0.00 | 0.00 | 46 | 1013.0 |
| 20260904194702 | 69 | 109 | 5.0 | 10.0 | 0.00 | 0.00 | 0.00 | 45 | 1013.0 |
| 20260904194155 | 69 | 116 | 7.0 | 9.0 | 0.00 | 0.00 | 0.00 | 46 | 1012.9 |
| 20260904193651 | 68 | 157 | 4.0 | 8.0 | 0.00 | 0.00 | 0.00 | 47 | 1013.1 |
| 20260904193148 | 69 | 128 | 7.0 | 9.0 | 0.00 | 0.00 | 0.00 | 47 | 1013.3 |
| 20260904192647 | 67 | 142 | 4.0 | 13.0 | 0.00 | 0.00 | 0.00 | 51 | 1013.3 |
| 20260904192143 | 67 | 26 | 5.0 | 11.0 | 0.00 | 0.00 | 0.00 | 51 | 1013.4 |
| 20260904191639 | 67 | 71 | 2.0 | 10.0 | 0.00 | 0.00 | 0.00 | 52 | 1013.3 |
| 20260904191136 | 66 | 356 | 2.0 | 3.0 | 0.00 | 0.00 | 0.00 | 50 | 1013.4 |
| 20260904190631 | 65 | 50 | 2.0 | 5.0 | 0.00 | 0.00 | 0.00 | 50 | 1013.6 |
| 20260904190127 | 66 | 88 | 7.0 | 8.0 | 0.00 | 0.00 | 0.00 | 49 | 1013.5 |
| 20260904185624 | 66 | 84 | 2.0 | 4.0 | 0.00 | 0.00 | 0.00 | 50 | 1013.6 |
| 20260904185118 | 66 | 177 | 3.0 | 7.0 | 0.00 | 0.00 | 0.00 | 51 | 1013.7 |
| 20260904184617 | 66 | 76 | 2.0 | 6.0 | 0.00 | 0.00 | 0.00 | 51 | 1013.7 |
| 20260904184112 | 64 | 309 | 2.0 | 9.0 | 0.00 | 0.00 | 0.00 | 54 | 1013.9 |
| 20260904183608 | 66 | 107 | 4.0 | 10.0 | 0.00 | 0.00 | 0.00 | 54 | 1013.7 |
| 20260904183102 | 65 | 127 | 4.0 | 9.0 | 0.00 | 0.00 | 0.00 | 54 | 1013.7 |
| 20260904182558 | 65 | 184 | 5.0 | 7.0 | 0.00 | 0.00 | 0.00 | 54 | 1013.8 |
| 20260904182052 | 65 | 127 | 5.0 | 7.0 | 0.00 | 0.00 | 0.00 | 57 | 1013.7 |
| 20260904181548 | 66 | 82 | 7.0 | 11.0 | 0.00 | 0.00 | 0.00 | 55 | 1013.8 |
| 20260904181042 | 65 | 237 | 1.0 | 4.0 | 0.00 | 0.00 | 0.00 | 54 | 1013.6 |
| 20260904180536 | 62 | 119 | 3.0 | 6.0 | 0.00 | 0.00 | 0.00 | 59 | 1013.7 |
| 20260904180032 | 63 | 193 | 3.0 | 4.0 | 0.00 | 0.00 | 0.00 | 58 | 1013.8 |
| 20260904175526 | 64 | 136 | 6.0 | 7.0 | 0.00 | 0.00 | 0.00 | 55 | 1013.9 |
| 20260904175024 | 63 | 121 | 4.0 | 9.0 | 0.00 | 0.00 | 0.00 | 59 | 1013.8 |
| 20260904174519 | 62 | 107 | 4.0 | 7.0 | 0.00 | 0.00 | 0.00 | 61 | 1013.7 |
| 20260904174016 | 62 | 124 | 2.0 | 9.0 | 0.00 | 0.00 | 0.00 | 60 | 1013.7 |
| 20260904173511 | 61 | 125 | 5.0 | 9.0 | 0.00 | 0.00 | 0.00 | 64 | 1013.9 |
| 20260904173007 | 61 | 122 | 5.0 | 10.0 | 0.00 | 0.00 | 0.00 | 64 | 1013.8 |
| 20260904172503 | 60 | 152 | 2.0 | 8.0 | 0.00 | 0.00 | 0.00 | 65 | 1013.8 |
| 20260904172001 | 60 | 108 | 4.0 | 9.0 | 0.00 | 0.00 | 0.00 | 68 | 1013.7 |
| 20260904171457 | 60 | 124 | 6.0 | 8.0 | 0.00 | 0.00 | 0.00 | 67 | 1013.6 |